Regional Weather Roundup
Issued by NWS

Home | Current Version | Previous Version | Text Only | Print | Product List | Glossary Off
Versions: 1 2 3 4 5 6 7 8 9 10 11 12 13 14 15 16 17 18 19 20 21 22 23 24 25 26 27 28

000
ASUS45 KCYS 271910
RWRWY

WYOMING REGIONAL WEATHER ROUNDUP
NATIONAL WEATHER SERVICE CHEYENNE WY
100 PM MDT TUE SEP 27 2016

NOTE:  "FAIR" INDICATES FEW OR NO CLOUDS BELOW 12,000 FEET
WITH NO SIGNIFICANT WEATHER AND/OR OBSTRUCTIONS TO VISIBILITY.

WYZ001-272000-
YELLOWSTONE NATIONAL PARK

CITY           SKY/WX    TMP DP  RH WIND       PRES   REMARKS
LK YELLOWSTONE   N/A     58  42  55 VRB3      30.38F
W YELLOWSTONE  NOT AVBL

$$
WYZ002>013-054>058-071-098>099-272000-
NORTHERN WYOMING

CITY           SKY/WX    TMP DP  RH WIND       PRES   REMARKS
JACKSON        SUNNY     61  39  44 CALM      30.31F
CODY           FAIR      73  52  46 NE8       30.17F
GREYBULL       FAIR      69  49  48 E5        30.13F
WORLAND        FAIR      69  49  48 W6        30.14F
SHERIDAN       FAIR      82  41  23 N10       30.08F
BUFFALO        FAIR      80  35  19 N9        30.15F
GILLETTE       FAIR      77  41  27 NW12G22   30.10F
HULETT         FAIR      75  41  29 W7        30.10F
NEWCASTLE      FAIR      70  41  35 W3        30.12F

$$
WYZ014>020-022>026-101>103-272000-
CENTRAL WYOMING

CITY           SKY/WX    TMP DP  RH WIND       PRES   REMARKS
BIG PINEY      FAIR      68  36  30 SE3       30.32F
PINEDALE       FAIR      68  32  26 SW5       30.32F
DUBOIS         FAIR      70  28  21 N13G23    30.29F
LANDER         FAIR      72  40  31 VRB3      30.21F
RIVERTON       FAIR      65  48  54 CALM      30.22F
CASPER         FAIR      74  43  32 SW14      30.19F
DOUGLAS        FAIR      80  31  16 W16       30.16F

$$
WYZ021-027>030-104>119-272000-
SOUTHERN WYOMING

CITY           SKY/WX    TMP DP  RH WIND       PRES   REMARKS
EVANSTON       FAIR      67  33  28 CALM      30.33F
FORT BRIDGER   FAIR      67  36  31 N5        30.36F
ROCK SPRINGS   FAIR      64  39  39 SW5       30.32F
DIXON          FAIR      69  36  29 W7        30.33F
RAWLINS        FAIR      69  35  28 W9        30.31F
SARATOGA       FAIR      68  32  26 CALM      30.32F
LARAMIE        FAIR      68  32  26 N7        30.30F
CHEYENNE       FAIR      77  22  13 MISG      30.22F
TORRINGTON     FAIR      79  38  22 NW7       30.10F
PINE BLUFFS    FAIR      77  27  15 CALM      30.18F

$$




USA.gov is the U.S. government's official web portal to all federal, state and local government web resources and services.